DECAYED

STARLINK-4028, 52677 (Decayed)

Orbit data source: Space-Track

STARLINK-4028, 52677 was a payload satellite owned by SpaceX/Seattle (US) in LEO that was launched on Wed, 18 May 2022 UTC via an FALCON 9 launch vehicle from the Air Force Eastern Test Range (AFETR). Payload-class satellites include a variety of spacecraft equipped with specific instruments for various scientific and technological missions. These include communications satellites like Starlink; space stations such as the ISS; scientific satellites like the Hubble; Earth observation satellites from companies like Planet Labs, Umbra, and HawkEye 360; GPS; miniature CubeSats for education and research; and military/defense satellites.

Not visible in the next 10 days
Identifier
52677, 2022-053X
Orbit
Decayed
Country
Flag of USUS
Related business
Manufacturer
SpaceX/Seattle
Mission
Decayed Commercial Communications
Bus & Motor
STARLINK, Unknown motor
Mass
297 kg wet, ~275 kg dry
Launch date (UTC)
2022-05-18 (4 years ago)
Launch vehicle
FALCON 9
Launch site
Air Force Eastern Test Range (AFETR)
Object type
Payload
Rocket body
Debris
Shape & HBR
Box + 1 Pan, 10.1 m
Radar Cross Section
13.562 m², Large (>1 m²)

Expand to show TLE details & history
Last TLE update: 10 months ago

TLE from 10 months ago
0 STARLINK-4028
1 52677U 22053X   25223.15946006  .10049013  12569-4  25543-3 0  9991
2 52677  53.2050 328.8665 0006665 307.4075 120.1220 16.45513961179524
Epoch: 2025-08-11T03:49Z
TLE epoch observation values (Epoch: 2025-08-11T03:49:37.349Z)
Latitude
47.91279°
Longitude
7.01529°
Altitude
158.667 km
Speed
7.816 km/s
True Right ascension
01h 37m 09s
True Declination
47° 43' 33"
Sunlit
Object was in daylight at epoch
Visualization orbit readout
Latitude
Unknown
Longitude
Unknown
Altitude
Unknown
Speed
Unknown
Apparent Right ascension
Unknown
Apparent Declination
Unknown
Sunlit
N/A
Visualization observer readout
Local Sidereal Time
21:28:00
Azimuth
Unknown
Elevation
Unknown
Doppler factor
Unknown
Orbital elements
Apogee altitude
155.789 km
Perigee altitude
147.085 km
Semi-major axis
6,529.574 km
Eccentricity
0.00067
Inclination
53.205°
RAAN
328.8665°
Arg. of periapsis
307.4075°
True anomaly
120.18803°
Mean anomaly
120.122°
Eccentric anomaly
120.15502°
Mean motion
4.11354 °/min
Orbital period
87.52 mins
BSTAR
0.00025543
Loading maneuver chart data...
Computing Atmospheric mass density...
Loading historical data...
Loading historical data...
Loading historical data...
Loading historical data...
Loading historical data...
Loading historical data...
Loading historical data...

Documentation

Showing up to 5 results
|